Location: The Saddle
(36.8333°N, 80.3417°W)
Time: 08:15:39
(UTC-04:00)

Vanguard 2 Rocket - Pass Details

Date: 07 February 2023
Orbit: 555 x 3316 km, 32.9° (Epoch: 27 March)

Event Time Altitude Azimuth Distance (km) Brightness Sun altitude
Rises 14:27:12 0° 265° (W) 2,735 9.8 31.7°
Reaches altitude 10° 14:30:02 10° 242° (WSW) 1,831 9.6 31.4°
Maximum altitude 14:32:34 16° 202° (SSW) 1,534 9.9 31.1°
Drops below altitude 10° 14:35:24 10° 162° (SSE) 2,059 9.4 30.8°
Sets 14:38:53 0° 141° (SE) 3,273 10.0 30.4°
